TimeCDT,TemperatureF,Dew PointF,Humidity,Sea Level PressureIn,VisibilityMPH,Wind Direction,Wind SpeedMPH,Gust SpeedMPH,PrecipitationIn,Events,Conditions,WindDirDegrees,DateUTC
12:15 AM,62.6,60.8,94,30.10,9.0,Calm,Calm,-,0.00,,Clear,0,2013-09-16 05:15:00
12:35 AM,64.4,60.8,88,30.10,10.0,Calm,Calm,-,0.00,,Clear,0,2013-09-16 05:35:00
12:55 AM,62.6,60.8,94,30.10,10.0,Calm,Calm,-,0.00,,Clear,0,2013-09-16 05:55:00
1:15 AM,62.6,59.0,88,30.10,10.0,Calm,Calm,-,0.00,,Clear,0,2013-09-16 06:15:00
1:35 AM,62.6,59.0,88,30.10,10.0,Calm,Calm,-,0.00,,Clear,0,2013-09-16 06:35:00
1:55 AM,62.6,59.0,88,30.10,10.0,Calm,Calm,-,0.00,,Clear,0,2013-09-16 06:55:00
2:15 AM,60.8,59.0,94,30.10,10.0,Calm,Calm,-,0.00,,Clear,0,2013-09-16 07:15:00
2:35 AM,60.8,59.0,94,30.09,10.0,Calm,Calm,-,0.00,,Clear,0,2013-09-16 07:35:00
2:55 AM,60.8,59.0,94,30.10,10.0,Calm,Calm,-,0.00,,Clear,0,2013-09-16 07:55:00
3:15 AM,60.8,59.0,94,30.09,9.0,Calm,Calm,-,0.00,,Clear,0,2013-09-16 08:15:00
3:35 AM,60.8,59.0,94,30.09,10.0,Calm,Calm,-,0.00,,Clear,0,2013-09-16 08:35:00
3:55 AM,60.8,59.0,94,30.09,10.0,Calm,Calm,-,0.00,,Clear,0,2013-09-16 08:55:00
4:15 AM,60.8,59.0,94,30.09,10.0,Calm,Calm,-,0.00,,Clear,0,2013-09-16 09:15:00
4:35 AM,59.0,59.0,100,30.08,10.0,Calm,Calm,-,0.00,,Clear,0,2013-09-16 09:35:00
4:55 AM,59.0,59.0,100,30.09,9.0,Calm,Calm,-,0.00,,Clear,0,2013-09-16 09:55:00
5:15 AM,60.8,57.2,88,30.09,10.0,Calm,Calm,-,0.00,,Clear,0,2013-09-16 10:15:00
5:35 AM,60.8,57.2,88,30.10,10.0,Calm,Calm,-,0.00,,Clear,0,2013-09-16 10:35:00
5:55 AM,59.0,59.0,100,30.10,10.0,Calm,Calm,-,0.00,,Clear,0,2013-09-16 10:55:00
6:15 AM,57.2,57.2,100,30.11,10.0,NE,4.6,-,0.00,,Clear,50,2013-09-16 11:15:00
6:35 AM,57.2,57.2,100,30.12,10.0,Calm,Calm,-,0.00,,Clear,0,2013-09-16 11:35:00
3:50 PM,87.8,55.4,33,30.10,10.0,NNE,8.1,-,N/A,,Mostly Cloudy,20,2013-09-16 20:50:00
4:50 PM,86.0,57.2,37,30.10,10.0,ENE,9.2,-,N/A,,Mostly Cloudy,60,2013-09-16 21:50:00
5:50 PM,82.4,57.2,42,30.09,10.0,NE,10.4,-,N/A,,Scattered Clouds,40,2013-09-16 22:50:00
6:50 PM,80.6,59.0,48,30.09,10.0,NNE,9.2,-,N/A,,Scattered Clouds,30,2013-09-16 23:50:00
7:50 PM,77.0,62.6,61,30.11,10.0,NNE,9.2,-,N/A,,Partly Cloudy,30,2013-09-17 00:50:00
8:55 PM,75.2,68.0,78,30.12,10.0,NNE,9.2,-,0.00,,Clear,30,2013-09-17 01:55:00
9:15 PM,75.2,68.0,78,30.12,10.0,NNE,10.4,-,0.00,,Clear,20,2013-09-17 02:15:00
9:35 PM,73.4,69.8,88,30.12,9.0,NNE,11.5,-,0.00,,Clear,20,2013-09-17 02:35:00
9:55 PM,73.4,69.8,88,30.13,9.0,NNE,12.7,-,0.00,,Clear,20,2013-09-17 02:55:00
10:15 PM,71.6,69.8,94,30.14,9.0,NNE,11.5,-,0.00,,Clear,30,2013-09-17 03:15:00
10:35 PM,71.6,69.8,94,30.15,10.0,NNE,10.4,-,0.00,,Clear,30,2013-09-17 03:35:00
10:55 PM,71.6,69.8,94,30.15,10.0,NNE,8.1,-,0.00,,Clear,30,2013-09-17 03:55:00
11:15 PM,71.6,69.8,94,30.15,10.0,NNE,6.9,-,0.00,,Clear,30,2013-09-17 04:15:00
11:35 PM,69.8,69.8,100,30.16,9.0,NE,8.1,-,0.00,,Clear,40,2013-09-17 04:35:00
11:55 PM,69.8,69.8,100,30.15,8.0,NE,9.2,-,0.00,,Clear,50,2013-09-17 04:55:00